This is the latest recevied weather packets stored in our database for station/object EA4BHK-10. If no packets are shown the sender has not sent any weather packets the latest 10 day(s).
| Time | Temp. | Humidity | Pressure | Rain* | Wind** | Luminosity | Snow |
|---|---|---|---|---|---|---|---|
| 1787842362 | 23.33° C | 32% | 1013.4 hPa | - | - | - | - |
| 1787840587 | 23.33° C | 33% | 1013.6 hPa | - | - | - | - |
| 1787839687 | 23.33° C | 34% | 1013.5 hPa | - | - | - | - |
| 1787838787 | 22.78° C | 35% | 1013.6 hPa | - | - | - | - |
| 1787837887 | 23.33° C | 35% | 1013.4 hPa | - | - | - | - |
| 1787836987 | 23.33° C | 36% | 1013.5 hPa | - | - | - | - |
| 1787836087 | 22.78° C | 37% | 1013.6 hPa | - | - | - | - |
| 1787835187 | 23.33° C | 37% | 1013.4 hPa | - | - | - | - |
| 1787834287 | 23.33° C | 36% | 1013.5 hPa | - | - | - | - |
| 1787833386 | 23.33° C | 34% | 1013.4 hPa | - | - | - | - |
| 1787832487 | 23.89° C | 36% | 1013.3 hPa | - | - | - | - |
| 1787831587 | 23.89° C | 36% | 1013.3 hPa | - | - | - | - |
| 1787830687 | 24.44° C | 36% | 1013.1 hPa | - | - | - | - |
| 1787829787 | 23.33° C | 39% | 1013.6 hPa | - | - | - | - |
| 1787828900 | 23.89° C | 37% | 1013.2 hPa | - | - | - | - |
| 1787827986 | 22.22° C | 40% | 1013.9 hPa | - | - | - | - |
| 1787827061 | 22.78° C | 40% | 1013.6 hPa | - | - | - | - |
| 1787826161 | 22.78° C | 40% | 1014 hPa | - | - | - | - |
| 1787825261 | 22.78° C | 40% | 1014 hPa | - | - | - | - |
| 1787824361 | 22.22° C | 42% | 1014.3 hPa | - | - | - | - |
| 1787823461 | 21.67° C | 42% | 1014 hPa | - | - | - | - |
| 1787822561 | 21.11° C | 45% | 1014.2 hPa | - | - | - | - |
| 1787821661 | 20° C | 50% | 1014.5 hPa | - | - | - | - |
| 1787820761 | 20° C | 52% | 1014.6 hPa | - | - | - | - |
| 1787819861 | 19.44° C | 53% | 1014.7 hPa | - | - | - | - |
* Rain since midnight (hover to see other rain measurements)
** Current wind speed in m/s (hover to see current wind gust speed)